461  
ASUS41 KBTV 160030  
RWRBTV  
VERMONT REGIONAL WEATHER ROUNDUP  
NATIONAL WEATHER SERVICE BURLINGTON VT  
800 PM EDT SUN SEP 15 2019  
 
NOTE: "FAIR" INDICATES FEW OR NO CLOUDS BELOW 12,000 FEET WITH NO  
SIGNIFICANT WEATHER AND/OR S TO VISIBILITY
.  
 
* THESE REPORTS ARE NOT UNDER NWS QUALITY CONTROL AND/OR DO NOT  
REPORT WEATHER SUCH AS PRECIPITATION AND FOG.
 
 
VTZ001>019-160100-  
_____VERMONT_____  
 
 
CITY SKY/WX TMP DP RH WIND PRES REMARKS
 
BURLINGTON CLOUDY 65 49 56 W6 30.06R  
6HR MIN TEMP: 64; 6HR MAX TEMP: 72; 6HR PCP: TRACE;  
 
MONTPELIER CLOUDY 60 50 69 W9 30.10R  
6HR MIN TEMP: 59; 6HR MAX TEMP: 67; 6HR PCP: TRACE;  
 
MORRISVILLE CLOUDY 58 51 78 N8 30.07R  
6HR MIN TEMP: 58; 6HR MAX TEMP: 68;  
 
ST. JOHNSBURY* N/A 61 51 70 MISG 30.03S  
6HR MIN TEMP: 61; 6HR MAX TEMP: 69;  
 
LYNDONVILLE* MOCLDY 56 49 78 W5 30.08S  
6HR MIN TEMP: 56; 6HR MAX TEMP: 68;  
 
RUTLAND* CLOUDY 61 58 90 N5 30.07S  
6HR MIN TEMP: 61; 6HR MAX TEMP: 72; 6HR PCP: TRACE;  
 
SPRINGFIELD MOCLDY 64 54 69 CALM 30.06S  
6HR MIN TEMP: 64; 6HR MAX TEMP: 74;  
 
HIGHGATE* FAIR 59 52 78 NW3 30.07S  
6HR MIN TEMP: 60; 6HR MAX TEMP: 68;  
 
NEWPORT* CLOUDY 56 49 79 NW7 30.08S  
6HR MIN TEMP: 56; 6HR MAX TEMP: 64;  
 
BENNINGTON CLOUDY 65 55 70 SW5 30.08S  
6HR MIN TEMP: 64; 6HR MAX TEMP: 72; 6HR PCP: TRACE;  
 
ISLAND POND* N/A 55 N/A N/A W2 N/A  
GALLUP MILLS* N/A 54 N/A N/A MISG N/A  
LAKE EDEN* N/A 55 N/A N/A S1 N/A  
MT. MANSFIELD* N/A 46 N/A N/A NW35G47 N/A  
 
_____LAKE CHAMPLAIN_____  
 
 
CITY SKY/WX TMP DP RH WIND PRES REMARKS
 
BURTON ISLAND* N/A 61 54 77 NW5 N/A  
COLCHESTER RF* N/A 64 52 63 NW14 N/A  
DIAMOND ISL* N/A 66 48 52 W7G15 N/A  
 

 
 
NYZ007-026>031-035-052-083-087-160100-  
_____NORTHERN NEW YORK_____  
 
 
CITY SKY/WX TMP DP RH WIND PRES REMARKS
 
PLATTSBURGH CLOUDY 63 50 62 N5 30.06S  
6HR MIN TEMP: 63; 6HR MAX TEMP: 70;  
 
SARANAC LAKE CLOUDY 54 48 80 W7 30.08F  
6HR MIN TEMP: 54; 6HR MAX TEMP: 63;  
 
MASSENA FAIR 53 50 89 CALM 30.11R  
6HR MIN TEMP: 53; 6HR MAX TEMP: 64; 6HR PCP: TRACE;  
 
OGDENSBURG* MOCLDY 57 54 88 CALM 30.08R  
POTSDAM* MOCLDY 57 52 82 N3 30.10R  
WATERTOWN CLOUDY 59 55 87 CALM 30.10S  
6HR MIN TEMP: 59; 6HR MAX TEMP: 65; 6HR PCP: 0.02;  
 
FT DRUM CLOUDY 58 56 92 CALM 30.09F  
6HR MIN TEMP: 58; 6HR MAX TEMP: 65; 6HR PCP: 0.05;  
 
ALBANY MOCLDY 68 56 65 NW3 30.07S  
6HR MIN TEMP: 68; 6HR MAX TEMP: 78;  
 
GLENS FALLS CLOUDY 66 54 65 NW5 30.06F  
6HR MIN TEMP: 65; 6HR MAX TEMP: 76; 6HR PCP: TRACE;  
 

 
NHZ002-005-011-160100-  
_____NEW HAMPSHIRE_____  
 
 
CITY SKY/WX TMP DP RH WIND PRES REMARKS
 
LEBANON MOCLDY 64 53 67 CALM 30.04S  
6HR MIN TEMP: 64; 6HR MAX TEMP: 76; 6HR PCP: TRACE;  
 
KEENE FAIR 63 57 81 CALM 30.06R  
6HR MIN TEMP: 63; 6HR MAX TEMP: 75;  
 
MT WASHINGTON LGT RAIN 39 39 100 W56G66 N/A VSB 0 WCI 24  
6HR MIN TEMP: 39; 6HR MAX TEMP: 43; 6HR PCP: 0.01;  
 
PLYMOUTH FAIR 65 47 50 W7 30.03R  
6HR MIN TEMP: 65; 6HR MAX TEMP: 73;  
 
WHITEFIELD CLOUDY 60 50 69 W5 30.05R  
6HR MIN TEMP: 60; 6HR MAX TEMP: 69; 6HR PCP: TRACE;  
 

 
 
_____REGIONAL QUEBEC LOCATIONS_____  
 
 
CITY SKY/WX TMP DP RH WIND PRES REMARKS
 
MONTREAL MOCLDY 61 48 63 W12G18 30.07R  
QUEBEC CITY MOCLDY 55 50 82 SW7 29.99R  
SHERBROOKE MOCLDY 55 50 82 W5 30.04S  
 
_____REGIONAL ONTARIO LOCATIONS_____  
 
 
CITY SKY/WX TMP DP RH WIND PRES REMARKS
 
OTTAWA MOCLDY 57 48 72 W7 30.11R  
 
______KEY______  
VSB - VISIBILITY IN MILES  
WCI - WIND CHILL INDEX  
HX - HEAT INDEX  

 
NNNN  
 
 
CLICK HERE TO GO TO PREVIOUS BULLETINS.

The Nexlab VT Page
The Nexlab NY Page Main Text Page